Regional Weather Roundup
Issued by NWS

Home | Current Version | Previous Version | Text Only | Print | Product List | Glossary Off
Versions: 1 2 3 4 5 6 7 8 9 10 11 12 13 14 15 16 17 18 19 20 21 22 23 24 25 26 27 28 29 30 31 32 33 34 35 36 37 38 39 40 41 42 43 44 45 46 47 48 49 50

000
ASUS43 KTOP 060308
RWRKS

WEATHER ROUNDUP FOR KANSAS
NATIONAL WEATHER SERVICE GOODLAND KS
900 PM CST THU MAR 05 2015

NOTE:  "FAIR" INDICATES FEW OR NO CLOUDS BELOW 12,000 FEET WITH NO
SIGNIFICANT WEATHER AND/OR OBSTRUCTIONS TO VISIBILITY.

KSZ001>006-013>018-027>032-041>047-060400-
NORTHWEST KANSAS

CITY           SKY/WX    TMP DP  RH WIND       PRES   REMARKS
GOODLAND       PTCLDY    32  18  56 W9        30.27S
HAYS           MOCLDY    36   9  32 S13       30.31S WCI  27
HILL CITY      PTCLDY    34  11  38 SW7       30.28S
RUSSELL        MOCLDY    32   9  38 S12       30.31R WCI  23
$$

KSZ061>065-074>080-084>089-060400-
SOUTHWEST KANSAS

CITY           SKY/WX    TMP DP  RH WIND       PRES   REMARKS
DODGE CITY     MOCLDY    32  15  49 S7        30.34S
ELKHART          N/A     33  18  54 S10         N/A  WCI  25
GARDEN CITY    CLOUDY    31  18  58 S7        30.32R
GREAT BEND     MOCLDY    30  16  55 S9        30.35S
LIBERAL        CLEAR     34  19  55 SW9       30.34R
PRATT          PTCLDY    34  19  55 S9        30.38F
$$

KSZ066>073-081>083-090>101-060400-
SOUTHEAST KANSAS

CITY           SKY/WX    TMP DP  RH WIND       PRES   REMARKS
CHANUTE        CLEAR     28  18  66 SE9       30.48S
COFFEYVILLE    CLEAR     30  19  63 SE8       30.50S
HUTCHINSON     MOCLDY    30  18  60 S9        30.39S
MEDICINE LODGE   N/A     33  22  63 S9        30.40R
NEWTON         PTCLDY    30  16  55 S9        30.41F
PARSONS        CLEAR     31  19  61 SE6       30.50S
WICHITA INTL   PTCLDY    32  20  61 S9        30.43R
WICHITA JABRA  CLEAR     32  17  54 S9        30.42S
WICHITA MCCONL CLEAR     33  19  56 S12       30.43R WCI  24
WINFIELD       CLEAR     33  19  56 S10       30.47R WCI  25
$$

KSZ007>012-019>026-033>040-048>060-102>105-060400-
NORTHEAST KANSAS

CITY           SKY/WX    TMP DP  RH WIND       PRES   REMARKS
CONCORDIA      PTCLDY    30  10  43 S9        30.33F
EMPORIA        CLEAR     25  18  74 SE8       30.44S
LAWRENCE       CLEAR     23  13  65 SE6       30.48S
MANHATTAN      CLEAR     30  16  56 S8        30.40F
MARYSVILLE     CLEAR     28  14  54 SE10      30.36F WCI  19
OLATHE IND     CLEAR     24  14  65 S10       30.48S WCI  14
OLATHE EXE     CLEAR     24  14  65 SE8       30.47F
SALINA         PTCLDY    28  15  58 S9        30.37F
TOPEKA BILLARD CLEAR     27  13  55 SE6       30.46F
TOPEKA FORBES  CLEAR     25  13  60 SE8       30.44F
$$


USA.gov is the U.S. government's official web portal to all federal, state and local government web resources and services.